Dades meteomassalio
Diari Summary for Gener 29, 2017 Units:  English    Metric   Both
« Previous Day
Next Day »
Diari Semanal Mensual Anual Personalitzat
  Maxima: Minima: Mijana:
Temperatura: 57.4 °F 33.4 °F 44.8 °F
Rosada: 42.6 °F 30.9 °F 37.4 °F
Humitat: 91 % 50 % 76 %
Velocitat del vent: 13 mph 0 mph 0.9 mph
Racha vent: 13 mph - -
Vent:- - West
Pressio: 30.4 in 30.2 in -
Pluja: 0 in    
Historical Graphs
 
 
Tabular Data for Gener 29, 2017
Time Temperature Dew Point Pressure Wind Wind Speed Wind Gust Humidity Rainfall Rate (Hourly) solar Conditions
00:02 45.1 °F 35.4 °F 30.3 in West 11.5 mph 11.5 mph 69 % 0 in 0.0 W/m2 RA
00:07 45.1 °F 35.2 °F 30.3 in West 11.5 mph 11.5 mph 68 % 0 in 0.0 W/m2 CLR
00:12 45.3 °F 35.4 °F 30.3 in West 11.5 mph 11.5 mph 68 % 0 in 0.0 W/m2 CLR
00:17 45.3 °F 35.4 °F 30.3 in West 12.7 mph 12.7 mph 68 % 0 in 0.0 W/m2 CLR
00:22 45.3 °F 35.4 °F 30.3 in West 12 mph 12 mph 68 % 0 in 0.0 W/m2 CLR
00:27 45.3 °F 35.1 °F 30.3 in West 11.5 mph 11.5 mph 67 % 0 in 0.0 W/m2 CLR
00:32 45.3 °F 35.1 °F 30.3 in West 11.5 mph 11.5 mph 67 % 0 in 0.0 W/m2 CLR
00:37 45.3 °F 35.1 °F 30.3 in West 13 mph 13 mph 67 % 0 in 0.0 W/m2 CLR
00:42 45.5 °F 35.2 °F 30.3 in West 11.5 mph 11.5 mph 67 % 0 in 0.0 W/m2 CLR
00:47 45.3 °F 35.1 °F 30.3 in West 8.1 mph 8.1 mph 67 % 0 in 0.0 W/m2 CLR
00:52 45.3 °F 35.1 °F 30.3 in West 11.5 mph 11.5 mph 67 % 0 in 0.0 W/m2 CLR
00:57 45.3 °F 35.1 °F 30.3 in West 10.4 mph 10.4 mph 67 % 0 in 0.0 W/m2 CLR
01:02 45.3 °F 35.1 °F 30.3 in West 6.9 mph 6.9 mph 67 % 0 in 0.0 W/m2 CLR
01:07 44.8 °F 34.9 °F 30.3 in Calm     68 % 0 in 0.0 W/m2 CLR
01:12 43.5 °F 34.3 °F 30.3 in Calm     70 % 0 in 0.0 W/m2 CLR
01:17 42.8 °F 34.3 °F 30.3 in WSW 4.6 mph 4.6 mph 72 % 0 in 0.0 W/m2 CLR
01:22 43 °F 34.5 °F 30.3 in Calm     72 % 0 in 0.0 W/m2 CLR
01:32 41.4 °F 34 °F 30.3 in WSW 8.1 mph 8.1 mph 75 % 0 in 0.0 W/m2 CLR
01:37 41.4 °F 34.3 °F 30.3 in WSW 8.1 mph 8.1 mph 76 % 0 in 0.0 W/m2 CLR
01:42 41.9 °F 34.5 °F 30.3 in West 8.1 mph 8.1 mph 75 % 0 in 0.0 W/m2 CLR
01:47 42.4 °F 34.5 °F 30.3 in WSW 6 mph 6 mph 73 % 0 in 0.0 W/m2 CLR
01:52 42.6 °F 34.3 °F 30.3 in WSW 4.6 mph 4.6 mph 72 % 0 in 0.0 W/m2 CLR
01:57 42.4 °F 34.3 °F 30.3 in Calm     73 % 0 in 0.0 W/m2 CLR
02:02 41.9 °F 34.2 °F 30.3 in Calm     74 % 0 in 0.0 W/m2 CLR
02:07 41.4 °F 34.2 °F 30.3 in Calm     75 % 0 in 0.0 W/m2 CLR
02:12 40.8 °F 33.8 °F 30.3 in Calm     76 % 0 in 0.0 W/m2 CLR
02:17 40.5 °F 33.4 °F 30.3 in Calm     76 % 0 in 0.0 W/m2 CLR
02:27 40.1 °F 33.4 °F 30.3 in Calm     77 % 0 in 0.0 W/m2 CLR
02:32 39.9 °F 33.6 °F 30.3 in Calm     78 % 0 in 0.0 W/m2 CLR
02:43 39.4 °F 33.3 °F 30.3 in Calm     79 % 0 in 0.0 W/m2 CLR
02:48 39.2 °F 33.3 °F 30.3 in Calm     79 % 0 in 0.0 W/m2 CLR
02:53 39 °F 33.4 °F 30.3 in Calm     80 % 0 in 0.0 W/m2 CLR
02:58 38.8 °F 33.3 °F 30.3 in Calm     80 % 0 in 0.0 W/m2 CLR
03:03 38.7 °F 33.1 °F 30.3 in Calm     80 % 0 in 0.0 W/m2 CLR
03:08 38.5 °F 32.9 °F 30.3 in Calm     80 % 0 in 0.0 W/m2 CLR
03:13 38.3 °F 33.1 °F 30.3 in Calm     81 % 0 in 0.0 W/m2 CLR
03:23 38.1 °F 33.1 °F 30.3 in Calm     82 % 0 in 0.0 W/m2 CLR
03:28 37.9 °F 32.9 °F 30.3 in Calm     82 % 0 in 0.0 W/m2 CLR
03:33 37.6 °F 32.9 °F 30.3 in Calm     83 % 0 in 0.0 W/m2 CLR
03:43 37.4 °F 32.7 °F 30.3 in Calm     83 % 0 in 0.0 W/m2 CLR
03:48 37.4 °F 32.7 °F 30.3 in Calm     83 % 0 in 0.0 W/m2 CLR
03:53 37.2 °F 32.9 °F 30.3 in Calm     84 % 0 in 0.0 W/m2 CLR
03:58 37.2 °F 32.9 °F 30.3 in Calm     84 % 0 in 0.0 W/m2 CLR
04:03 37 °F 32.4 °F 30.3 in Calm     83 % 0 in 0.0 W/m2 CLR
04:08 36.9 °F 32.4 °F 30.3 in Calm     84 % 0 in 0.0 W/m2 CLR
04:13 36.7 °F 32.2 °F 30.3 in Calm     84 % 0 in 0.0 W/m2 CLR
04:18 36.3 °F 32.4 °F 30.3 in Calm     85 % 0 in 0.0 W/m2 CLR
04:23 36.3 °F 32.2 °F 30.3 in Calm     85 % 0 in 0.0 W/m2 CLR
04:28 36.1 °F 32 °F 30.3 in Calm     85 % 0 in 0.0 W/m2 CLR
04:33 35.8 °F 32 °F 30.3 in Calm     86 % 0 in 0.0 W/m2 CLR
04:38 35.6 °F 31.8 °F 30.3 in Calm     86 % 0 in 0.0 W/m2 CLR
04:48 35.4 °F 32 °F 30.3 in Calm     87 % 0 in 0.0 W/m2 CLR
04:53 35.4 °F 32 °F 30.3 in Calm     87 % 0 in 0.0 W/m2 CLR
04:58 35.4 °F 32.4 °F 30.3 in Calm     88 % 0 in 0.0 W/m2 CLR
05:03 35.4 °F 32 °F 30.3 in Calm     87 % 0 in 0.0 W/m2 CLR
05:08 35.4 °F 32.2 °F 30.3 in Calm     88 % 0 in 0.0 W/m2 CLR
05:13 35.4 °F 32.2 °F 30.3 in Calm     88 % 0 in 0.0 W/m2 CLR
05:18 35.4 °F 32.2 °F 30.3 in Calm     88 % 0 in 0.0 W/m2 CLR
05:23 35.4 °F 32.2 °F 30.3 in Calm     88 % 0 in 0.0 W/m2 CLR
05:28 35.2 °F 32.2 °F 30.3 in Calm     88 % 0 in 0.0 W/m2 CLR
05:33 35.2 °F 32.2 °F 30.3 in Calm     88 % 0 in 0.0 W/m2 CLR
05:43 35.2 °F 32.4 °F 30.3 in Calm     89 % 0 in 0.0 W/m2 CLR
05:48 35.4 °F 32.5 °F 30.3 in Calm     89 % 0 in 0.0 W/m2 CLR
05:53 35.4 °F 32.5 °F 30.3 in Calm     89 % 0 in 0.0 W/m2 CLR
05:58 35.4 °F 32.2 °F 30.3 in Calm     88 % 0 in 0.0 W/m2 CLR
06:08 35.2 °F 32 °F 30.3 in Calm     88 % 0 in 0.0 W/m2 CLR
06:13 35.1 °F 31.8 °F 30.3 in Calm     88 % 0 in 0.0 W/m2 CLR
06:18 34.9 °F 31.8 °F 30.3 in Calm     89 % 0 in 0.0 W/m2 CLR
06:23 34.9 °F 31.8 °F 30.3 in Calm     89 % 0 in 0.0 W/m2 CLR
06:28 34.9 °F 31.8 °F 30.3 in Calm     89 % 0 in 0.0 W/m2 CLR
06:38 34.5 °F 31.6 °F 30.3 in Calm     89 % 0 in 0.0 W/m2 CLR
06:43 34.2 °F 31.3 °F 30.3 in Calm     89 % 0 in 0.0 W/m2 CLR
06:48 34 °F 31.3 °F 30.3 in Calm     90 % 0 in 0.0 W/m2 CLR
06:53 34 °F 31.5 °F 30.3 in Calm     90 % 0 in 0.0 W/m2 CLR
06:58 34.2 °F 31.6 °F 30.3 in Calm     90 % 0 in 0.0 W/m2 CLR
07:03 34.2 °F 31.6 °F 30.3 in Calm     90 % 0 in 0.0 W/m2 CLR
07:08 34.2 °F 31.6 °F 30.3 in Calm     90 % 0 in 0.0 W/m2 CLR
07:13 34 °F 31.3 °F 30.3 in Calm     90 % 0 in 0.0 W/m2 CLR
07:18 33.6 °F 31.1 °F 30.3 in Calm     90 % 0 in 0.0 W/m2 CLR
07:23 33.6 °F 30.9 °F 30.3 in Calm     90 % 0 in 0.0 W/m2 CLR
07:28 33.6 °F 31.3 °F 30.3 in Calm     91 % 0 in 0.0 W/m2 CLR
07:33 33.6 °F 31.5 °F 30.3 in Calm     91 % 0 in 0.0 W/m2 CLR
07:38 33.8 °F 31.5 °F 30.3 in Calm     91 % 0 in 0.0 W/m2 CLR
07:43 33.8 °F 31.3 °F 30.3 in Calm     90 % 0 in 0.0 W/m2 CLR
07:48 33.4 °F 31.3 °F 30.3 in Calm     91 % 0 in 0.0 W/m2 CLR
07:53 33.6 °F 31.5 °F 30.3 in Calm     91 % 0 in 0.0 W/m2 CLR
07:58 33.6 °F 31.5 °F 30.3 in Calm     91 % 0 in 0.0 W/m2 CLR
07:59 33.6 °F 31.3 °F 30.3 in Calm     91 % 0 in 0.0 W/m2 CLR
08:04 33.8 °F 31.5 °F 30.3 in Calm     91 % 0 in 5.0 W/m2 OVC
08:09 34 °F 31.6 °F 30.3 in Calm     91 % 0 in 11.0 W/m2 OVC
08:14 34.2 °F 31.8 °F 30.3 in Calm     91 % 0 in 12.0 W/m2 OVC
08:19 34.3 °F 31.8 °F 30.3 in Calm     91 % 0 in 16.0 W/m2 BKN
08:24 34.3 °F 32 °F 30.3 in Calm     91 % 0 in 21.0 W/m2 BKN
08:29 34.5 °F 32.2 °F 30.3 in Calm     91 % 0 in 25.0 W/m2 BKN
08:34 34.9 °F 32.4 °F 30.3 in Calm     91 % 0 in 26.0 W/m2 BKN
08:39 35.1 °F 32.5 °F 30.3 in Calm     91 % 0 in 32.0 W/m2 BKN
08:44 35.2 °F 32.9 °F 30.3 in Calm     91 % 0 in 40.0 W/m2 BKN
08:49 35.8 °F 33.3 °F 30.3 in Calm     91 % 0 in 37.0 W/m2 BKN
08:59 36.1 °F 33.4 °F 30.3 in Calm     90 % 0 in 37.0 W/m2 BKN
09:04 36.1 °F 33.4 °F 30.3 in Calm     90 % 0 in 39.0 W/m2 BKN
09:09 36.3 °F 33.6 °F 30.3 in Calm     90 % 0 in 44.0 W/m2 BKN
09:14 36.3 °F 33.6 °F 30.3 in Calm     90 % 0 in 53.0 W/m2 BKN
09:19 36.7 °F 34 °F 30.3 in Calm     90 % 0 in 58.0 W/m2 SCT
09:24 36.7 °F 33.8 °F 30.4 in Calm     89 % 0 in 65.0 W/m2 SCT
09:29 36.9 °F 34 °F 30.4 in Calm     89 % 0 in 76.0 W/m2 SCT
09:34 36.7 °F 33.8 °F 30.4 in Calm     89 % 0 in 83.0 W/m2 FEW
09:39 36.7 °F 33.6 °F 30.4 in Calm     89 % 0 in 84.0 W/m2 FEW
09:44 36.7 °F 33.8 °F 30.4 in Calm     89 % 0 in 88.0 W/m2 FEW
09:49 37 °F 34.3 °F 30.4 in Calm     90 % 0 in 114.0 W/m2 CLR
09:54 37 °F 34.3 °F 30.4 in Calm     90 % 0 in 113.0 W/m2 CLR
10:04 37.9 °F 35.4 °F 30.4 in Calm     91 % 0 in 144.0 W/m2 CLR
10:09 38.5 °F 35.8 °F 30.4 in Calm     90 % 0 in 158.0 W/m2 CLR
10:14 39 °F 36 °F 30.3 in Calm     89 % 0 in 162.0 W/m2 CLR
10:19 39.6 °F 36.1 °F 30.3 in Calm     88 % 0 in 186.0 W/m2 CLR
10:24 39.9 °F 36.3 °F 30.3 in Calm     87 % 0 in 163.0 W/m2 CLR
10:34 40.8 °F 36.9 °F 30.3 in Calm     86 % 0 in 125.0 W/m2 CLR
10:39 41.2 °F 37.2 °F 30.3 in Calm     86 % 0 in 155.0 W/m2 CLR
10:45 41.5 °F 37.2 °F 30.3 in Calm     85 % 0 in 178.0 W/m2 CLR
10:50 41.9 °F 37.8 °F 30.3 in Calm     85 % 0 in 185.0 W/m2 CLR
10:55 42.3 °F 37.9 °F 30.3 in Calm     85 % 0 in 199.0 W/m2 CLR
11:00 42.4 °F 37.9 °F 30.3 in Calm     84 % 0 in 193.0 W/m2 CLR
11:05 43 °F 38.5 °F 30.3 in Calm     84 % 0 in 181.0 W/m2 CLR
11:10 43.3 °F 38.7 °F 30.3 in Calm     83 % 0 in 181.0 W/m2 CLR
11:15 43.9 °F 39 °F 30.3 in Calm     83 % 0 in 190.0 W/m2 CLR
11:20 44.2 °F 39.2 °F 30.3 in Calm     82 % 0 in 248.0 W/m2 CLR
11:25 44.8 °F 39.6 °F 30.3 in Calm     82 % 0 in 309.0 W/m2 CLR
11:30 45.3 °F 39.9 °F 30.3 in Calm     81 % 0 in 411.0 W/m2 CLR
11:35 46.2 °F 40.5 °F 30.3 in Calm     80 % 0 in 510.0 W/m2 CLR
11:40 47.1 °F 40.3 °F 30.3 in Calm     77 % 0 in 396.0 W/m2 CLR
11:45 47.7 °F 40.8 °F 30.3 in Calm     77 % 0 in 334.0 W/m2 CLR
11:50 48.4 °F 41.2 °F 30.3 in Calm     76 % 0 in 264.0 W/m2 CLR
11:55 48.7 °F 41.2 °F 30.3 in Calm     75 % 0 in 308.0 W/m2 CLR
12:05 50.5 °F 41.4 °F 30.3 in Calm     71 % 0 in 575.0 W/m2 CLR
12:10 51.4 °F 42.3 °F 30.3 in Calm     71 % 0 in 374.0 W/m2 CLR
12:15 52 °F 40.8 °F 30.3 in Calm     66 % 0 in 338.0 W/m2 CLR
12:20 52.2 °F 40.6 °F 30.3 in Calm     65 % 0 in 383.0 W/m2 CLR
12:25 52.3 °F 41 °F 30.3 in Calm     65 % 0 in 380.0 W/m2 CLR
12:30 53.1 °F 41.5 °F 30.3 in Calm     65 % 0 in 445.0 W/m2 CLR
12:35 53.2 °F 40.6 °F 30.3 in Calm     62 % 0 in 575.0 W/m2 CLR
12:40 53.4 °F 41.2 °F 30.3 in Calm     63 % 0 in 629.0 W/m2 CLR
12:45 53.8 °F 41.5 °F 30.3 in Calm     63 % 0 in 471.0 W/m2 CLR
12:50 54.1 °F 41 °F 30.3 in SE 3.5 mph 3.5 mph 61 % 0 in 448.0 W/m2 CLR
12:55 54.1 °F 41 °F 30.3 in NW 4.6 mph 4.6 mph 61 % 0 in 287.0 W/m2 CLR
13:00 53.8 °F 40.6 °F 30.3 in Calm     61 % 0 in 278.0 W/m2 CLR
13:05 53.8 °F 40.6 °F 30.3 in NW 2.3 mph 2.3 mph 61 % 0 in 313.0 W/m2 CLR
13:10 54 °F 41.5 °F 30.3 in NW 3.5 mph 3.5 mph 63 % 0 in 320.0 W/m2 CLR
13:15 53.8 °F 41.5 °F 30.3 in NNW 5.8 mph 5.8 mph 63 % 0 in 304.0 W/m2 CLR
13:20 53.6 °F 40.8 °F 30.3 in NNW 3.5 mph 3.5 mph 62 % 0 in 272.0 W/m2 CLR
13:30 53.8 °F 42.6 °F 30.3 in Calm     66 % 0 in 596.0 W/m2 CLR
13:35 54 °F 41.4 °F 30.3 in Calm     62 % 0 in 455.0 W/m2 CLR
13:40 54.1 °F 41 °F 30.3 in Calm     61 % 0 in 545.0 W/m2 CLR
13:45 54.3 °F 41.2 °F 30.3 in North 6.9 mph 6.9 mph 61 % 0 in 550.0 W/m2 CLR
13:50 54.7 °F 42.3 °F 30.3 in Calm     63 % 0 in 510.0 W/m2 CLR
13:55 54.7 °F 41.2 °F 30.3 in Calm     60 % 0 in 499.0 W/m2 CLR
14:00 55.2 °F 42.4 °F 30.3 in Calm     62 % 0 in 504.0 W/m2 CLR
14:05 55.8 °F 42.1 °F 30.3 in Calm     60 % 0 in 531.0 W/m2 CLR
14:10 56.1 °F 42.1 °F 30.3 in Calm     59 % 0 in 540.0 W/m2 CLR
14:20 57 °F 40.5 °F 30.3 in Calm     54 % 0 in 443.0 W/m2 CLR
14:25 57 °F 40.1 °F 30.3 in WNW 3.5 mph 3.5 mph 53 % 0 in 517.0 W/m2 CLR
14:30 56.7 °F 41.2 °F 30.2 in Calm     56 % 0 in 490.0 W/m2 CLR
14:35 56.8 °F 40.3 °F 30.2 in NW 2.3 mph   54 % 0 in 376.0 W/m2 CLR
14:40 57.2 °F 41.5 °F 30.2 in Calm     56 % 0 in 274.0 W/m2 CLR
14:50 57.2 °F 40.3 °F 30.2 in Calm     53 % 0 in 510.0 W/m2 CLR
14:55 57.4 °F 40.8 °F 30.2 in Calm     54 % 0 in 443.0 W/m2 CLR
15:00 57 °F 39.6 °F 30.2 in Calm     52 % 0 in 243.0 W/m2 CLR
15:05 56.7 °F 39.7 °F 30.2 in Calm     53 % 0 in 232.0 W/m2 CLR
15:10 56.5 °F 39.6 °F 30.2 in Calm     53 % 0 in 218.0 W/m2 CLR
15:15 56.7 °F 39.4 °F 30.2 in Calm     52 % 0 in 234.0 W/m2 CLR
15:20 57 °F 40.6 °F 30.2 in Calm     54 % 0 in 295.0 W/m2 CLR
15:25 57.4 °F 39.7 °F 30.2 in Calm     52 % 0 in 230.0 W/m2 CLR
15:30 57.4 °F 39.4 °F 30.2 in Calm     51 % 0 in 111.0 W/m2 CLR
15:35 57.4 °F 38.8 °F 30.2 in Calm     50 % 0 in 95.0 W/m2 CLR
15:40 57.2 °F 39.7 °F 30.2 in Calm     52 % 0 in 118.0 W/m2 CLR
15:45 56.8 °F 38.8 °F 30.2 in Calm     51 % 0 in 169.0 W/m2 CLR
15:55 56.7 °F 39.7 °F 30.2 in Calm     53 % 0 in 109.0 W/m2 CLR
16:00 56.3 °F 39.4 °F 30.2 in Calm     53 % 0 in 151.0 W/m2 CLR
16:10 55.9 °F 39 °F 30.2 in Calm     53 % 0 in 130.0 W/m2 CLR
16:15 55.8 °F 38.8 °F 30.2 in Calm     53 % 0 in 121.0 W/m2 CLR
16:20 55.8 °F 38.8 °F 30.2 in Calm     53 % 0 in 91.0 W/m2 CLR
16:25 55.8 °F 39.4 °F 30.2 in Calm     54 % 0 in 79.0 W/m2 CLR
16:35 56.1 °F 41.5 °F 30.2 in Calm     58 % 0 in 229.0 W/m2 CLR
16:40 56.3 °F 41.4 °F 30.2 in Calm     57 % 0 in 197.0 W/m2 CLR
16:45 56.3 °F 41.4 °F 30.2 in NE 2 mph 2 mph 57 % 0 in 188.0 W/m2 CLR
16:50 56.1 °F 41.5 °F 30.2 in Calm     58 % 0 in 171.0 W/m2 CLR
16:55 55.9 °F 41.9 °F 30.2 in Calm     59 % 0 in 155.0 W/m2 CLR
17:00 55.9 °F 41.7 °F 30.2 in Calm     59 % 0 in 141.0 W/m2 CLR
17:05 55.9 °F 42.3 °F 30.2 in Calm     60 % 0 in 123.0 W/m2 CLR
17:16 55.8 °F 41.2 °F 30.2 in Calm     58 % 0 in 72.0 W/m2 CLR
17:21 55.8 °F 40.8 °F 30.2 in Calm     57 % 0 in 39.0 W/m2 BKN
17:26 55.6 °F 40.1 °F 30.2 in Calm     56 % 0 in 21.0 W/m2 BKN
17:31 55.2 °F 40.8 °F 30.2 in Calm     58 % 0 in 32.0 W/m2 BKN
17:36 55 °F 40.8 °F 30.2 in Calm     59 % 0 in 19.0 W/m2 BKN
17:41 54.7 °F 41 °F 30.2 in Calm     60 % 0 in 16.0 W/m2 BKN
17:46 54.3 °F 40.6 °F 30.2 in Calm     60 % 0 in 12.0 W/m2 BKN
17:51 54.1 °F 40.8 °F 30.2 in Calm     61 % 0 in 9.0 W/m2 BKN
17:56 53.8 °F 40.6 °F 30.2 in Calm     61 % 0 in 9.0 W/m2 BKN
18:01 53.4 °F 40.8 °F 30.2 in Calm     62 % 0 in 7.0 W/m2 BKN
18:06 53.2 °F 40.8 °F 30.2 in Calm     63 % 0 in 7.0 W/m2 BKN
18:11 52.9 °F 41 °F 30.2 in Calm     64 % 0 in 0.0 W/m2 OVC
18:16 52.5 °F 40.8 °F 30.2 in Calm     64 % 0 in 0.0 W/m2 OVC
18:21 52.3 °F 41 °F 30.2 in Calm     65 % 0 in 0.0 W/m2 OVC
18:31 51.6 °F 41 °F 30.2 in Calm     67 % 0 in 0.0 W/m2 CLR
18:36 51.3 °F 41.2 °F 30.2 in Calm     68 % 0 in 0.0 W/m2 CLR
18:41 51.3 °F 41.4 °F 30.2 in Calm     69 % 0 in 0.0 W/m2 CLR
18:46 50.9 °F 41.2 °F 30.2 in Calm     69 % 0 in 0.0 W/m2 CLR
18:51 50.7 °F 41.4 °F 30.2 in Calm     70 % 0 in 0.0 W/m2 CLR
18:56 50.4 °F 41.5 °F 30.2 in Calm     72 % 0 in 0.0 W/m2 CLR
19:06 49.1 °F 41.2 °F 30.2 in Calm     74 % 0 in 0.0 W/m2 CLR
19:11 49.1 °F 41.2 °F 30.2 in Calm     74 % 0 in 0.0 W/m2 CLR
19:21 48.7 °F 41.2 °F 30.2 in Calm     75 % 0 in 0.0 W/m2 CLR
19:26 48.2 °F 41.4 °F 30.2 in Calm     77 % 0 in 0.0 W/m2 CLR
19:31 47.7 °F 41.2 °F 30.2 in Calm     78 % 0 in 0.0 W/m2 CLR
19:41 47.3 °F 41.4 °F 30.2 in Calm     80 % 0 in 0.0 W/m2 CLR
19:46 47.3 °F 41.4 °F 30.2 in Calm     80 % 0 in 0.0 W/m2 CLR
19:51 47.1 °F 41.2 °F 30.2 in Calm     80 % 0 in 0.0 W/m2 CLR
19:56 46.9 °F 41.4 °F 30.2 in Calm     81 % 0 in 0.0 W/m2 CLR
20:01 46.8 °F 41.2 °F 30.2 in Calm     81 % 0 in 0.0 W/m2 CLR
20:06 46.8 °F 41.2 °F 30.3 in Calm     81 % 0 in 0.0 W/m2 CLR
20:11 46.6 °F 41.4 °F 30.3 in Calm     82 % 0 in 0.0 W/m2 CLR
20:16 46.6 °F 41.4 °F 30.3 in Calm     82 % 0 in 0.0 W/m2 CLR
20:21 46.8 °F 41.5 °F 30.3 in Calm     82 % 0 in 0.0 W/m2 CLR
20:22 46.6 °F 41.7 °F 30.3 in Calm     83 % 0 in 0.0 W/m2 CLR
20:27 46.6 °F 41.7 °F 30.3 in Calm     83 % 0 in 0.0 W/m2 CLR
20:32 46.6 °F 41.7 °F 30.3 in Calm     83 % 0 in 0.0 W/m2 CLR
20:37 46.4 °F 41.5 °F 30.3 in Calm     83 % 0 in 0.0 W/m2 CLR
20:42 46.2 °F 41.4 °F 30.3 in Calm     83 % 0 in 0.0 W/m2 CLR
20:47 46.2 °F 41.7 °F 30.3 in Calm     84 % 0 in 0.0 W/m2 CLR
20:52 46.2 °F 41.7 °F 30.3 in Calm     84 % 0 in 0.0 W/m2 CLR
20:57 46.4 °F 41.7 °F 30.3 in Calm     84 % 0 in 0.0 W/m2 CLR
21:02 46.6 °F 41.9 °F 30.3 in Calm     84 % 0 in 0.0 W/m2 CLR
21:07 46.4 °F 41.7 °F 30.3 in Calm     84 % 0 in 0.0 W/m2 CLR
21:12 46.4 °F 41.7 °F 30.3 in Calm     84 % 0 in 0.0 W/m2 CLR
21:17 46.2 °F 41.7 °F 30.3 in Calm     84 % 0 in 0.0 W/m2 CLR
21:22 46.2 °F 41.4 °F 30.3 in Calm     83 % 0 in 0.0 W/m2 CLR
21:33 46 °F 41.7 °F 30.3 in Calm     85 % 0 in 0.0 W/m2 CLR
21:38 46.2 °F 41.9 °F 30.3 in Calm     85 % 0 in 0.0 W/m2 CLR
21:43 46.2 °F 42.1 °F 30.3 in Calm     85 % 0 in 0.0 W/m2 CLR
21:48 46.2 °F 42.1 °F 30.3 in Calm     85 % 0 in 0.0 W/m2 CLR
21:53 46.2 °F 41.7 °F 30.3 in Calm     84 % 0 in 0.0 W/m2 CLR
21:58 46.2 °F 41.5 °F 30.3 in Calm     84 % 0 in 0.0 W/m2 CLR
22:03 46.2 °F 41.5 °F 30.3 in Calm     84 % 0 in 0.0 W/m2 CLR
22:08 46.2 °F 41.9 °F 30.3 in Calm     85 % 0 in 0.0 W/m2 CLR
22:23 46 °F 41.7 °F 30.3 in Calm     85 % 0 in 0.0 W/m2 CLR
22:28 46 °F 41.7 °F 30.3 in Calm     85 % 0 in 0.0 W/m2 CLR
22:33 45.9 °F 41.5 °F 30.3 in Calm     85 % 0 in 0.0 W/m2 CLR
22:38 45.9 °F 41.5 °F 30.3 in Calm     85 % 0 in 0.0 W/m2 CLR
22:48 45.9 °F 41.5 °F 30.3 in Calm     85 % 0 in 0.0 W/m2 CLR
22:58 45.7 °F 41.4 °F 30.3 in Calm     85 % 0 in 0.0 W/m2 CLR
23:03 45.7 °F 41.4 °F 30.3 in Calm     85 % 0 in 0.0 W/m2 CLR
23:08 45.7 °F 41.4 °F 30.3 in Calm     85 % 0 in 0.0 W/m2 CLR
23:13 45.5 °F 41.4 °F 30.3 in Calm     85 % 0 in 0.0 W/m2 CLR
23:18 45.5 °F 41.5 °F 30.3 in Calm     86 % 0 in 0.0 W/m2 CLR
23:23 45.7 °F 41.4 °F 30.3 in Calm     85 % 0 in 0.0 W/m2 CLR
23:28 45.9 °F 41.5 °F 30.3 in Calm     85 % 0 in 0.0 W/m2 CLR
23:33 45.9 °F 41.5 °F 30.3 in Calm     85 % 0 in 0.0 W/m2 CLR
23:38 46 °F 41.7 °F 30.3 in Calm     85 % 0 in 0.0 W/m2 CLR
23:43 46 °F 41.7 °F 30.3 in Calm     85 % 0 in 0.0 W/m2 CLR
23:48 46.2 °F 41.5 °F 30.3 in Calm     84 % 0 in 0.0 W/m2 CLR
23:53 46.2 °F 41.5 °F 30.3 in Calm     84 % 0 in 0.0 W/m2 CLR
23:58 46 °F 41.7 °F 30.3 in Calm     85 % 0 in 0.0 W/m2 CLR
Lo Temps de Massalio
Compliments of Weather Underground - 1 mb